Date,TemperatureHighF,TemperatureAvgF,TemperatureLowF,DewpointHighF,DewpointAvgF,DewpointLowF,HumidityHigh,HumidityAvg,HumidityLow,PressureMaxIn,PressureMinIn,WindSpeedMaxMPH,WindSpeedAvgMPH,GustSpeedMaxMPH,PrecipitationSumIn
2013-1-1,51.1,46.5,41.8,46.1,42.8,37.1,93,87,73,30.13,30.02,3,0,5,0.07
2013-1-2,52.0,43.0,37.7,44.7,39.7,35.3,94,88,75,30.39,30.12,3,1,7,0.01
2013-1-3,56.9,46.9,37.8,35.9,32.2,29.1,85,59,35,30.67,30.39,4,1,7,0.00
2013-1-4,59.0,45.5,36.1,47.7,37.4,29.7,83,74,59,30.66,30.49,2,0,5,0.00
2013-1-5,62.7,47.7,38.7,47.7,38.7,32.5,87,72,53,30.49,30.28,3,0,6,0.00
2013-1-6,63.0,49.0,40.7,45.6,37.4,30.4,79,65,48,30.34,30.27,3,0,6,0.00
2013-1-7,64.3,48.7,40.8,52.6,40.4,33.3,88,74,48,30.30,30.19,2,0,4,0.00
2013-1-8,56.9,44.4,37.1,50.1,40.8,34.6,93,87,74,30.34,30.27,2,0,4,0.00
2013-1-9,51.8,43.8,34.4,47.4,40.8,32.0,96,89,78,30.28,30.11,1,0,3,0.00
2013-1-10,55.8,44.4,37.1,44.8,39.0,34.7,94,82,60,30.15,30.08,3,0,5,0.00
2013-1-11,55.0,44.8,37.5,46.9,40.2,35.0,94,84,68,30.18,30.11,3,0,7,0.00
2013-1-12,53.9,42.7,33.6,41.4,37.0,31.4,93,81,59,30.14,29.90,2,0,5,0.00
2013-1-13,47.2,43.4,38.2,43.7,40.4,36.1,94,89,78,29.91,29.76,4,0,6,0.11
2013-1-14,47.7,40.5,35.7,41.3,36.9,33.5,94,87,73,29.99,29.91,3,1,7,0.00
2013-1-15,52.0,41.8,34.4,38.5,31.0,16.7,92,69,28,29.99,29.78,7,2,23,0.00
2013-1-16,50.4,39.6,32.6,40.3,32.3,22.6,91,75,60,29.90,29.56,4,0,9,0.00
2013-1-17,51.0,42.6,35.5,43.6,38.5,33.1,92,85,73,29.83,29.68,2,0,7,0.00
2013-1-18,50.9,43.1,36.1,45.9,38.5,33.5,92,84,61,29.82,29.43,2,0,5,0.00
2013-1-19,59.0,50.9,45.0,53.4,48.4,43.1,96,91,76,29.43,28.96,3,0,9,0.28
2013-1-20,55.1,46.2,38.9,47.2,41.4,35.2,96,84,47,29.55,29.09,3,0,9,0.01
2013-1-21,50.6,42.3,36.6,44.4,37.8,33.3,93,84,70,29.83,29.50,3,0,7,0.06
2013-1-22,51.4,42.0,34.3,37.5,32.8,29.5,87,71,45,29.83,29.55,3,1,11,0.01
2013-1-23,50.9,42.5,36.9,39.1,36.8,33.1,90,81,59,29.75,29.52,3,1,10,0.01
2013-1-24,49.2,42.0,36.5,39.8,36.1,32.5,90,80,64,29.79,29.62,3,0,7,0.00
2013-1-25,55.4,40.7,31.5,37.6,28.7,24.2,86,64,33,29.90,29.77,4,1,7,0.00
2013-1-26,52.8,43.9,35.0,42.6,35.5,26.4,90,73,56,30.10,29.75,3,0,10,0.00
2013-1-27,55.2,45.0,35.5,44.8,39.6,33.3,93,82,64,30.09,29.78,2,0,5,0.00
2013-1-28,58.2,48.3,42.2,45.8,42.3,38.8,95,81,51,30.32,29.82,4,1,11,0.11
2013-1-29,58.6,48.2,41.1,44.5,40.8,34.1,92,76,56,30.36,30.30,3,1,6,0.00
2013-1-30,62.5,49.0,37.2,48.8,39.9,32.7,86,72,55,30.35,30.22,4,0,5,0.00
2013-1-31,64.4,52.9,43.3,51.9,45.8,40.3,92,77,60,30.43,30.32,3,0,7,0.00
2013-2-1,66.9,53.9,46.5,52.4,46.3,43.4,92,77,49,30.33,29.66,2,0,9,0.00
2013-2-2,56.5,50.2,43.0,46.8,40.3,27.9,93,70,47,29.86,29.52,4,0,16,0.02
2013-2-3,58.5,47.2,37.1,30.7,17.1,3.8,67,33,11,30.31,29.85,8,2,26,0.00
2013-2-4,58.0,43.3,33.2,38.4,28.8,20.7,77,57,41,30.33,30.25,3,0,6,0.00
2013-2-5,62.0,49.0,39.1,46.8,39.1,19.1,88,71,20,30.27,29.87,9,1,28,0.00
2013-2-6,55.5,46.0,36.7,43.6,35.1,28.5,88,68,36,29.89,29.69,5,1,12,0.00
2013-2-7,49.8,41.6,33.4,31.9,21.9,14.5,78,48,27,30.05,29.79,12,3,31,0.00
2013-2-8,46.8,39.1,34.3,33.2,26.7,18.4,75,61,51,30.05,29.91,3,0,9,0.00
2013-2-9,48.6,37.7,28.1,32.5,27.6,22.4,80,68,48,30.16,30.03,4,0,9,0.00
2013-2-10,56.1,43.6,33.0,38.4,33.0,28.3,83,67,47,30.09,29.59,5,0,14,0.00
2013-2-11,52.8,46.3,39.3,38.2,34.7,30.8,77,64,46,29.65,29.53,3,0,14,0.00
2013-2-12,55.5,45.3,39.6,39.1,33.4,29.8,77,64,42,29.94,29.58,4,1,10,0.00
2013-2-13,52.4,41.1,35.6,40.4,34.5,31.5,85,77,63,30.14,29.94,2,1,7,0.00
2013-2-14,59.0,47.2,37.8,45.2,39.4,32.6,88,75,51,30.20,30.13,3,0,7,0.00
2013-2-15,58.3,47.9,38.5,45.1,41.2,36.1,93,79,60,30.19,30.08,2,0,6,0.00
2013-2-16,52.7,48.0,44.6,48.5,44.8,41.9,96,89,80,30.20,30.10,2,0,6,0.06
2013-2-17,55.5,49.4,46.8,48.1,45.6,44.1,92,87,74,30.11,29.94,1,0,6,0.00
2013-2-18,54.2,49.7,46.5,48.6,45.7,44.1,93,86,76,30.04,29.89,4,1,10,0.00
2013-2-19,54.0,48.4,40.9,46.0,43.1,37.3,91,82,71,30.06,29.95,3,0,5,0.00
2013-2-20,59.1,45.6,34.9,45.7,39.4,32.8,93,80,58,29.98,29.85,3,0,5,0.00
2013-2-21,54.8,46.3,37.5,46.6,41.7,34.7,92,84,73,29.90,29.68,2,0,6,0.00
2013-2-22,47.4,40.8,37.3,44.8,38.5,34.6,94,91,89,29.67,29.59,2,0,7,0.13
2013-2-23,45.5,36.4,29.2,37.0,31.1,25.0,91,82,58,29.86,29.51,3,1,10,0.06
2013-2-24,45.9,34.0,26.7,35.5,26.9,17.7,92,76,57,30.01,29.84,2,0,10,0.03
2013-2-25,45.7,34.9,30.4,34.2,29.8,26.0,94,82,55,30.14,29.98,2,0,6,0.15
2013-2-26,49.1,36.8,28.6,36.2,30.0,26.3,92,78,43,30.21,30.12,4,1,7,0.01
2013-2-27,51.1,41.5,31.7,40.0,33.4,27.3,84,73,58,30.23,30.15,4,2,12,0.04
2013-2-28,49.1,44.6,40.5,43.1,40.6,37.4,92,86,75,30.19,30.00,6,3,17,0.39
2013-3-1,50.7,46.7,44.3,42.0,39.2,31.3,91,76,48,29.99,29.85,10,5,27,0.43
2013-3-2,60.3,47.9,40.1,43.7,37.5,32.6,85,69,39,30.12,29.97,3,1,6,0.00
2013-3-3,61.3,47.5,35.8,43.1,36.7,31.7,86,68,38,30.10,29.97,2,0,6,0.00
2013-3-4,55.1,47.8,37.7,50.0,42.5,32.7,94,82,73,30.01,29.86,4,1,9,0.20
2013-3-5,54.2,52.7,51.7,52.7,51.6,50.0,98,96,92,29.85,29.49,5,2,12,2.35
2013-3-6,58.4,54.8,50.9,54.2,53.1,49.5,98,94,81,29.53,29.30,3,1,10,0.94
2013-3-7,63.9,54.6,49.8,57.1,52.1,49.1,98,92,78,29.68,29.49,2,0,8,0.01
2013-3-8,67.2,59.2,52.4,53.7,49.1,46.1,87,70,51,29.73,29.47,3,0,13,0.00
2013-3-9,66.9,57.6,48.3,49.0,45.3,40.2,87,66,39,29.68,29.60,7,2,16,0.00
2013-3-10,66.4,56.2,48.3,46.0,42.3,38.8,81,62,38,29.66,29.51,4,1,11,0.00
2013-3-11,63.0,53.3,44.3,44.0,40.2,37.3,84,64,40,29.62,29.49,8,2,19,0.00
2013-3-12,59.0,52.6,42.2,46.8,42.7,38.4,87,69,61,29.58,29.49,4,1,12,0.00
2013-3-13,46.4,42.5,35.5,42.6,38.7,32.0,92,86,72,29.61,29.42,3,0,10,0.00
2013-3-14,51.4,39.2,30.8,33.6,26.4,15.8,90,66,25,29.83,29.61,10,2,27,0.01
2013-3-15,52.6,38.0,30.7,36.9,27.7,21.4,81,67,46,30.09,29.83,3,0,5,0.00
2013-3-16,55.8,48.9,36.5,46.7,41.1,31.5,92,75,55,30.08,29.85,3,1,14,0.02
2013-3-17,57.8,51.9,48.1,49.4,47.2,45.8,93,84,69,29.85,29.44,3,0,6,0.02
2013-3-18,60.0,52.3,43.5,47.6,39.9,33.3,95,66,37,29.76,29.43,6,1,25,0.02
2013-3-19,59.2,48.8,38.1,46.4,40.5,33.8,85,74,53,29.79,29.60,3,0,5,0.00
2013-3-20,59.7,50.7,45.3,49.3,45.6,39.6,94,83,65,30.09,29.59,2,0,6,0.18
2013-3-21,65.4,52.9,42.7,47.1,43.0,40.2,93,72,46,30.12,29.91,4,1,9,0.00
2013-3-22,66.1,51.8,41.3,51.0,43.7,37.4,87,75,49,29.90,29.68,2,1,7,0.00
2013-3-23,61.4,54.5,46.1,52.0,49.0,42.7,92,82,69,29.72,29.60,2,0,6,0.00
2013-3-24,60.2,51.4,45.8,51.0,47.7,43.3,94,88,67,29.64,29.53,3,0,11,0.24
2013-3-25,63.4,52.9,45.0,52.2,47.5,43.7,96,83,61,29.69,29.59,3,0,10,0.00
2013-3-26,61.6,53.2,46.9,50.5,47.5,43.8,91,81,66,29.67,29.56,2,0,7,0.00
2013-3-27,54.9,52.2,50.4,52.4,50.3,49.0,97,93,87,29.71,29.58,1,0,3,0.06
2013-3-28,65.8,55.9,50.5,56.6,52.5,49.4,97,89,69,29.84,29.65,2,0,10,0.02
2013-3-29,69.8,60.3,51.1,54.0,51.4,49.0,94,74,56,29.85,29.60,4,0,11,0.01
2013-3-30,65.3,56.3,46.7,54.9,50.9,43.6,91,82,67,29.78,29.50,3,1,11,0.01
2013-3-31,60.4,50.9,41.6,49.8,44.7,38.6,91,80,60,29.78,29.65,3,1,7,0.00
2013-4-1,54.1,49.3,45.3,52.7,47.7,42.7,97,94,89,29.65,29.42,3,0,9,0.53
2013-4-2,63.1,50.2,43.0,50.5,46.1,41.7,96,87,56,29.80,29.62,4,1,10,0.36
2013-4-3,60.8,50.5,41.2,51.8,46.0,39.1,93,85,70,29.81,29.65,3,1,6,0.00
2013-4-4,59.5,52.1,47.4,50.5,47.5,44.0,92,85,64,29.65,29.51,3,1,9,0.02
2013-4-5,55.7,49.2,43.0,49.2,46.0,40.8,96,89,67,29.82,29.60,2,0,7,0.28
2013-4-6,52.1,46.4,41.3,44.3,41.5,38.8,96,84,66,29.97,29.81,3,0,9,0.14
2013-4-7,61.4,50.7,38.7,45.7,42.0,35.5,89,73,52,30.01,29.87,2,0,7,0.00
2013-4-8,62.9,51.0,44.2,48.2,43.2,39.4,86,75,45,29.88,29.77,5,1,14,0.00
2013-4-9,70.2,51.0,42.9,48.9,43.1,39.6,90,76,40,29.97,29.76,5,1,11,0.00
2013-4-10,71.3,59.1,48.1,55.0,48.6,44.2,89,69,54,30.03,29.91,1,0,8,0.00
2013-4-11,75.3,64.9,54.3,55.9,51.6,47.7,81,63,44,29.99,29.70,3,1,19,0.00
2013-4-12,73.9,61.6,51.0,52.5,47.2,39.8,91,64,31,30.08,29.85,4,1,17,0.00
2013-4-13,72.6,59.3,49.5,50.0,47.5,44.8,86,67,44,30.26,30.08,3,1,10,0.00
2013-4-14,75.4,60.8,48.3,52.0,45.3,40.3,86,61,30,30.28,30.24,2,1,6,0.00
2013-4-15,75.0,62.2,50.2,50.0,44.9,38.8,69,54,37,30.27,30.12,2,0,7,0.00
2013-4-16,76.9,63.7,51.9,57.9,52.2,46.9,83,67,49,30.20,30.15,3,0,7,0.00
2013-4-17,81.6,67.2,54.8,55.5,50.1,44.0,79,57,32,30.22,30.14,3,0,10,0.00
2013-4-18,71.5,61.7,50.7,55.8,50.2,44.9,81,67,51,30.20,30.12,2,0,10,0.00
2013-4-19,68.0,56.1,48.8,56.0,50.3,46.1,94,82,61,30.22,30.11,3,0,10,0.13
2013-4-20,66.5,52.9,41.5,47.8,41.9,27.6,94,70,25,30.20,30.07,4,1,11,0.00
2013-4-21,63.3,54.4,45.0,48.9,45.0,41.2,88,72,49,30.16,30.05,3,1,9,0.00
2013-4-22,65.3,56.3,48.1,49.5,46.3,43.0,86,71,45,30.13,30.00,2,0,6,0.00
2013-4-23,69.7,56.5,43.9,47.7,44.1,39.7,86,66,40,30.27,30.11,3,0,9,0.00
2013-4-24,66.0,57.9,47.7,48.7,44.8,42.3,83,63,46,30.34,30.25,6,2,17,0.00
2013-4-25,62.9,59.8,56.8,54.8,49.5,42.7,93,70,49,30.27,30.11,6,3,20,0.90
2013-4-26,66.1,60.7,56.6,55.1,53.3,52.0,91,77,62,30.14,29.86,5,2,15,0.00
2013-4-27,57.3,52.2,47.7,54.2,50.1,45.7,97,93,88,29.85,29.68,1,0,5,0.50
2013-4-28,50.0,47.2,45.0,46.0,42.3,38.9,93,83,71,29.92,29.78,5,1,13,0.05
2013-4-29,58.1,52.2,46.0,53.3,49.6,43.4,98,91,81,29.92,29.78,8,2,16,0.53
2013-4-30,69.7,59.1,51.4,57.7,52.4,45.1,98,81,45,29.99,29.81,3,0,9,0.10
2013-5-1,69.6,56.9,45.3,52.5,45.6,40.1,86,68,43,30.06,29.98,2,0,9,0.00
2013-5-2,68.8,56.9,46.3,53.0,48.9,43.7,92,76,54,30.06,29.98,1,0,6,0.00
2013-5-3,70.4,58.7,46.7,53.0,48.5,43.6,89,70,52,30.11,30.03,3,0,6,0.00
2013-5-4,67.9,59.2,52.6,53.2,50.4,47.6,88,74,54,30.16,30.08,2,0,10,0.03
2013-5-5,73.3,59.9,46.5,56.2,49.7,43.7,92,72,42,30.16,30.07,3,0,9,0.00
2013-5-6,78.9,64.0,48.6,57.9,51.6,44.9,88,67,39,30.13,30.01,4,0,5,0.00
2013-5-7,77.8,66.9,59.0,57.5,51.3,45.9,82,60,36,30.06,29.97,2,0,10,0.00
2013-5-8,78.7,65.8,57.4,60.5,52.9,46.0,89,64,44,30.03,29.93,2,0,9,0.00
2013-5-9,78.2,68.3,59.2,61.5,58.7,55.6,89,73,54,30.04,29.92,2,0,6,0.00
2013-5-10,65.7,60.4,57.3,59.9,56.6,52.8,94,87,76,30.13,29.95,2,0,7,0.08
2013-5-11,67.8,59.2,54.2,57.7,53.5,51.0,91,82,67,30.18,30.08,3,0,11,0.00
2013-5-12,70.7,59.5,53.0,55.2,52.3,49.6,92,78,56,30.22,30.13,3,0,7,0.00
2013-5-13,73.3,61.9,51.9,58.0,53.8,48.8,91,76,57,30.21,30.05,2,0,5,0.00
2013-5-14,69.6,59.1,51.4,60.1,54.3,48.9,93,84,62,30.06,29.75,2,0,11,0.05
2013-5-15,63.3,56.6,52.9,57.8,53.4,50.3,96,89,77,29.75,29.56,3,1,10,0.58
2013-5-16,56.9,53.0,49.9,52.2,50.9,47.1,97,93,82,29.59,29.49,1,0,6,0.28
2013-5-17,65.8,56.5,46.4,51.3,48.6,44.2,94,76,55,29.67,29.55,2,0,7,0.00
2013-5-18,66.4,58.3,53.7,55.4,50.3,44.8,95,77,49,29.79,29.55,5,1,15,0.46
2013-5-19,60.4,54.4,47.1,52.2,48.1,42.2,92,80,65,30.10,29.80,3,1,9,0.23
2013-5-20,61.4,54.4,49.8,53.0,48.9,46.3,94,83,65,30.14,30.07,3,0,7,0.02
2013-5-21,68.7,56.2,45.8,53.7,48.7,42.2,90,77,54,30.13,29.92,2,0,10,0.00
2013-5-22,75.6,61.6,50.4,55.6,51.5,47.3,90,71,49,29.96,29.83,2,0,6,0.00
2013-5-23,70.8,60.9,49.5,55.7,51.9,45.1,86,73,48,29.93,29.85,4,1,7,0.00
2013-5-24,62.7,55.8,52.9,52.3,48.9,45.7,92,78,58,30.02,29.90,1,0,6,0.02
2013-5-25,63.0,55.5,48.3,51.6,49.2,45.5,92,80,63,30.15,29.94,3,0,9,0.02
2013-5-26,67.5,56.9,43.2,54.1,49.3,40.5,92,77,59,30.14,29.99,2,0,9,0.00
2013-5-27,70.3,59.0,49.3,57.0,51.4,46.5,93,77,55,30.01,29.82,1,0,6,0.00
2013-5-28,72.6,56.7,49.1,57.8,50.7,46.0,93,82,53,29.88,29.68,4,1,13,0.21
2013-5-29,66.6,54.3,47.6,49.5,47.4,41.6,93,79,41,29.89,29.70,5,0,17,0.06
2013-5-30,68.5,55.4,43.6,51.1,46.6,40.6,90,74,49,29.91,29.86,3,1,7,0.00
2013-5-31,70.6,59.1,50.5,53.9,50.4,47.8,91,74,52,29.96,29.84,1,0,5,0.00
2013-6-1,82.0,67.0,54.7,57.2,50.4,46.8,79,58,31,30.04,29.91,3,1,9,0.00
2013-6-2,79.5,72.3,57.8,53.3,50.4,47.8,72,47,37,30.08,30.00,1,0,7,0.00
2013-6-3,76.9,64.7,53.0,57.1,52.0,45.2,77,64,49,30.08,30.01,3,0,6,0.00
2013-6-4,76.3,65.8,52.8,56.4,53.0,48.7,87,66,44,30.07,29.96,1,0,7,0.00
2013-6-5,79.4,62.6,52.8,57.4,52.2,48.6,87,71,46,30.03,29.94,2,1,10,0.00
2013-6-6,78.7,66.4,53.5,59.2,52.5,47.4,80,63,38,30.07,29.99,2,0,7,0.00
2013-6-7,81.6,69.6,57.2,55.8,52.1,48.4,80,56,34,30.07,29.99,1,0,6,0.00
2013-6-8,73.1,62.5,56.5,61.0,55.8,50.4,97,79,55,30.03,29.86,1,0,10,1.00
2013-6-9,71.6,62.2,52.2,57.4,53.1,49.0,89,73,55,29.92,29.76,3,1,12,0.00
2013-6-10,73.9,63.5,52.1,61.3,55.9,49.4,91,77,60,30.05,29.88,2,0,5,0.00
2013-6-11,78.5,67.1,56.4,64.6,59.1,54.0,92,77,56,30.11,30.03,2,0,9,0.00
2013-6-12,84.2,72.7,61.7,63.3,60.5,56.4,88,67,48,30.15,30.09,3,0,9,0.00
2013-6-13,88.9,75.6,63.1,66.0,59.9,53.7,86,62,33,30.12,30.01,4,1,14,0.00
2013-6-14,85.6,74.4,62.3,64.2,59.9,56.7,82,63,45,30.12,29.94,2,0,11,0.00
2013-6-15,87.1,74.3,63.2,67.1,60.8,54.7,88,66,36,30.07,29.99,2,0,7,0.00
2013-6-16,87.0,74.8,61.3,62.4,56.3,48.7,81,56,27,30.07,29.93,3,0,6,0.00
2013-6-17,85.5,73.1,61.4,68.0,60.6,49.5,83,65,50,29.96,29.81,3,1,10,0.00
2013-6-18,74.8,70.7,66.4,66.5,64.9,63.4,91,82,74,29.87,29.80,5,1,13,0.00
2013-6-19,82.2,71.7,62.9,66.3,60.9,52.9,95,72,37,29.96,29.82,1,0,11,0.01
2013-6-20,81.3,68.4,57.5,60.5,54.5,50.4,79,63,38,30.10,29.96,4,0,11,0.00
2013-6-21,80.9,66.7,57.4,62.9,57.7,52.1,89,74,45,30.18,30.05,6,1,12,0.04
2013-6-22,78.7,68.4,56.8,64.6,60.0,54.5,93,76,58,30.18,30.10,2,0,6,0.09
2013-6-23,76.9,65.1,59.0,65.3,60.1,56.4,94,85,63,30.20,30.12,2,0,6,0.18
2013-6-24,73.4,64.2,56.1,59.5,57.0,52.7,95,78,61,30.25,30.18,1,0,5,0.00
2013-6-25,75.0,67.5,58.4,62.1,58.2,53.3,87,73,60,30.25,30.18,2,0,6,0.00
2013-6-26,77.2,68.6,60.8,62.2,58.8,54.9,84,72,57,30.25,30.20,2,0,7,0.00
2013-6-27,75.9,65.7,57.2,63.3,58.3,52.3,93,78,57,30.26,30.16,2,0,10,0.14
2013-6-28,76.2,66.6,58.1,64.1,60.3,55.7,93,81,62,30.25,30.17,2,0,6,0.00
2013-6-29,78.9,69.1,58.5,66.3,62.0,55.8,91,79,64,30.27,30.19,2,0,9,0.00
2013-6-30,81.1,70.7,60.5,67.3,63.0,57.2,91,78,60,30.22,30.09,2,0,9,0.00
2013-7-1,82.8,72.2,61.5,63.1,59.8,56.4,91,68,44,30.11,30.02,2,0,10,0.00
2013-7-2,85.0,71.9,61.3,63.5,59.3,54.2,87,67,41,30.10,30.01,1,0,6,0.00
2013-7-3,82.5,70.9,62.7,68.0,63.1,58.7,90,77,58,30.11,30.01,1,0,6,0.00
2013-7-4,85.6,76.0,67.2,69.0,65.7,62.7,88,71,57,30.19,30.09,2,0,8,0.00
2013-7-5,89.0,74.9,62.1,67.6,62.5,56.9,88,68,45,30.23,30.17,2,0,7,0.00
2013-7-6,89.7,78.3,65.0,65.0,61.1,56.8,76,57,37,30.22,30.14,4,0,11,0.00
2013-7-7,92.3,80.1,68.9,66.0,62.9,60.4,75,57,39,30.18,30.12,1,0,6,0.00
2013-7-8,90.4,79.1,68.2,66.2,61.5,58.7,76,57,35,30.17,30.12,4,0,9,0.00
2013-7-9,90.1,78.3,64.6,63.7,60.1,56.0,75,55,38,30.17,30.01,2,0,9,0.00
2013-7-10,91.0,77.4,64.9,64.5,60.2,55.3,72,57,36,30.04,29.89,2,0,10,0.00
2013-7-11,84.7,72.5,64.8,68.7,63.9,58.9,90,75,55,29.97,29.89,3,0,7,0.01
2013-7-12,91.3,75.0,62.8,67.2,62.1,58.8,89,67,36,30.04,29.96,2,0,7,0.00
2013-7-13,90.7,79.2,67.2,68.7,63.4,60.5,79,60,38,30.04,29.98,1,0,7,0.00
2013-7-14,89.4,78.1,68.2,64.9,61.2,56.7,71,58,38,30.13,30.00,5,0,13,0.00
2013-7-15,90.6,79.1,66.4,64.7,60.7,55.3,70,55,40,30.13,30.06,2,0,12,0.00
2013-7-16,92.2,79.0,67.4,70.7,63.8,59.9,77,61,37,30.14,30.06,4,0,10,0.00
2013-7-17,89.3,76.6,68.7,71.6,63.9,58.6,78,66,44,30.14,30.07,3,0,9,0.00
2013-7-18,87.4,74.7,65.6,70.1,64.0,60.2,91,71,42,30.14,30.05,3,0,13,0.42
2013-7-19,88.8,75.5,63.8,69.0,63.9,59.3,87,69,49,30.09,29.99,4,0,14,0.00
2013-7-20,87.2,74.9,66.0,71.1,64.8,58.3,89,72,55,30.03,29.97,4,1,11,0.07
2013-7-21,88.5,76.1,63.0,71.5,65.4,58.8,87,71,48,30.07,30.00,3,0,8,0.00
2013-7-22,92.7,79.0,66.2,67.2,63.4,59.6,81,61,36,30.06,29.97,2,0,5,0.00
2013-7-23,93.5,78.9,65.6,72.2,64.1,59.5,82,62,40,30.01,29.92,7,0,17,0.00
2013-7-24,93.9,81.5,69.8,68.8,61.9,53.9,73,53,27,30.02,29.96,3,0,6,0.00
2013-7-25,95.3,82.3,68.4,69.8,63.0,52.8,78,55,28,30.03,29.94,2,0,9,0.00
2013-7-26,95.4,82.1,65.9,71.3,58.9,49.4,73,48,26,29.97,29.90,2,0,7,0.00
2013-7-27,93.2,80.6,69.8,75.3,68.3,59.4,82,67,47,29.92,29.76,2,0,9,0.00
2013-7-28,95.2,82.4,70.6,73.5,67.7,61.2,89,64,37,29.94,29.78,2,0,9,0.00
2013-7-29,85.1,76.0,65.1,66.5,63.5,55.9,91,67,46,30.24,29.94,5,0,14,0.24
2013-7-30,87.1,76.1,64.2,69.0,64.8,59.2,86,69,53,30.26,30.13,2,0,6,0.00
2013-7-31,92.2,79.8,66.8,68.1,65.1,60.4,83,63,43,30.17,30.02,2,0,7,0.00
2013-8-1,92.2,79.6,65.3,65.7,62.2,54.9,83,58,34,30.05,29.97,1,0,7,0.00
2013-8-2,93.8,80.0,66.4,65.5,58.6,51.3,71,50,32,30.05,29.98,3,1,12,0.00
2013-8-3,86.1,77.0,66.9,70.9,63.8,51.4,83,64,50,30.12,30.01,2,0,7,0.00
2013-8-4,92.3,79.9,67.0,69.1,65.4,59.9,83,63,43,30.14,30.03,3,0,8,0.00
2013-8-5,92.5,80.4,65.6,64.5,60.2,52.9,75,52,33,30.08,29.94,2,0,11,0.00
2013-8-6,94.8,80.9,71.6,73.3,67.5,60.3,83,65,32,30.04,29.84,2,0,10,0.00
2013-8-7,86.6,75.8,68.8,72.7,68.2,63.7,88,78,55,29.88,29.78,3,0,9,0.01
2013-8-8,80.2,70.3,62.3,64.7,61.0,57.5,91,74,49,30.16,29.89,3,0,8,0.11
2013-8-9,87.4,72.2,58.2,63.2,58.8,54.2,87,66,40,30.19,30.10,2,0,10,0.00
2013-8-10,83.9,73.7,62.7,68.4,63.0,57.3,84,70,55,30.18,30.07,3,0,13,0.00
2013-8-11,92.8,77.4,64.0,66.2,62.4,55.5,89,64,33,30.12,30.01,2,0,6,0.00
2013-8-12,92.1,79.2,66.9,63.7,60.8,57.7,76,56,32,30.05,29.95,2,0,9,0.00
2013-8-13,90.9,77.2,66.8,69.5,63.0,58.8,91,64,43,30.08,29.98,9,1,27,0.24
2013-8-14,86.5,74.1,63.6,71.1,65.8,60.6,91,76,56,30.10,30.04,3,0,9,0.00
2013-8-15,83.8,75.0,65.9,67.4,63.4,59.2,85,68,51,30.10,30.06,2,0,9,0.00
2013-8-16,87.5,75.1,65.1,72.0,67.1,61.5,89,77,60,30.10,30.02,2,0,7,0.00
2013-8-17,84.9,75.8,67.8,69.7,65.5,60.7,90,72,48,30.09,30.01,5,0,7,0.04
2013-8-18,87.6,75.5,63.2,71.4,65.2,58.5,86,71,54,30.08,30.02,2,0,7,0.00
2013-8-19,84.6,74.8,67.1,70.7,67.4,62.8,94,79,61,30.16,30.03,4,1,12,0.46
2013-8-20,86.9,74.7,67.2,67.9,65.6,60.9,93,75,52,30.17,30.08,2,0,6,0.00
2013-8-21,83.3,73.3,64.3,65.1,61.8,57.4,82,68,52,30.14,30.05,3,1,9,0.00
2013-8-22,86.1,75.2,64.9,70.7,66.0,62.0,92,74,57,30.07,29.94,1,0,7,0.00
2013-8-23,85.8,75.5,66.5,71.2,66.7,62.2,86,75,59,30.01,29.95,2,0,9,0.00
2013-8-24,80.6,71.9,64.9,69.6,65.9,62.4,95,82,63,30.02,29.95,3,0,10,0.28
2013-8-25,78.1,69.6,64.5,65.1,63.1,57.5,96,81,50,30.00,29.88,1,0,7,0.00
2013-8-26,73.0,67.0,60.8,64.3,61.0,57.1,90,81,70,29.95,29.89,2,0,6,0.00
2013-8-27,79.9,68.0,60.9,64.5,60.6,56.5,95,79,52,30.02,29.93,5,0,13,0.50
2013-8-28,80.2,69.5,62.9,66.1,63.0,60.5,94,81,60,30.07,29.99,2,0,6,0.01
2013-8-29,81.2,70.5,63.1,64.0,60.3,55.7,86,72,43,30.13,30.05,3,0,9,0.00
2013-8-30,84.2,69.4,59.3,61.2,57.7,54.6,88,69,37,30.15,30.06,3,0,9,0.00
2013-8-31,83.9,70.9,60.2,61.3,57.9,55.0,84,65,41,30.18,30.11,4,0,10,0.00
2013-9-1,86.2,72.1,59.1,65.1,58.8,53.5,82,65,38,30.20,30.12,2,0,7,0.00
2013-9-2,83.6,70.8,62.1,65.5,59.9,54.5,84,70,40,30.25,30.16,2,0,9,0.00
2013-9-3,85.3,71.4,60.5,63.8,53.0,46.1,78,54,28,30.25,30.17,5,1,11,0.00
2013-9-4,87.0,71.0,59.0,64.4,57.2,49.3,76,63,36,30.24,30.08,3,0,7,0.00
2013-9-5,85.5,71.0,59.3,61.2,56.5,52.4,79,62,40,30.10,29.93,3,1,11,0.00
2013-9-6,83.1,69.6,58.4,68.3,58.5,49.7,90,69,51,29.97,29.86,2,0,7,0.02
2013-9-7,79.3,67.7,62.5,71.1,64.1,60.7,96,89,71,30.05,29.96,2,0,7,0.54
2013-9-8,77.9,66.2,59.4,68.9,63.0,57.7,96,90,69,30.21,30.03,2,0,9,0.52
2013-9-9,74.4,65.8,60.2,64.8,61.4,58.6,96,87,68,30.24,30.17,2,0,9,0.00
2013-9-10,77.2,64.8,58.6,66.7,60.4,55.4,96,86,67,30.19,30.07,3,1,9,0.33
2013-9-11,68.6,62.8,60.5,61.1,59.8,57.2,97,90,73,30.16,30.08,1,0,4,0.02
2013-9-12,73.7,63.9,57.7,61.3,58.8,55.7,95,84,64,30.19,30.11,2,0,10,0.00
2013-9-13,76.4,65.7,57.6,64.9,60.1,54.7,91,83,66,30.23,30.17,3,0,6,0.00
2013-9-14,80.7,69.7,59.9,68.6,63.5,57.3,92,82,62,30.22,29.96,2,0,7,0.00
2013-9-15,70.8,66.9,64.1,65.3,62.6,61.1,93,86,80,30.04,29.95,2,0,6,0.03
2013-9-16,82.1,68.9,59.3,64.4,59.8,54.2,93,75,39,30.03,29.80,3,0,24,0.00
2013-9-17,74.7,67.4,62.5,61.4,59.5,57.4,86,76,58,29.99,29.85,2,0,9,0.00
2013-9-18,76.2,65.6,57.0,63.8,58.9,54.1,91,80,62,29.99,29.88,2,0,6,0.00
2013-9-19,78.9,67.4,58.6,66.2,60.7,55.1,90,80,59,29.99,29.89,1,0,9,0.00
2013-9-20,81.1,68.2,58.9,64.1,60.4,56.1,92,78,52,30.14,29.99,2,0,6,0.00
2013-9-21,81.1,69.1,60.0,65.5,61.2,56.7,89,77,54,30.24,30.13,3,0,7,0.00
2013-9-22,79.2,67.7,60.0,61.6,57.8,53.8,86,72,48,30.28,30.21,3,0,5,0.00
2013-9-23,78.3,66.1,55.9,62.9,57.7,51.5,87,75,56,30.24,30.09,2,0,4,0.00
2013-9-24,79.4,67.9,58.6,67.4,61.3,55.4,91,80,60,30.09,29.97,2,0,6,0.00
2013-9-25,81.0,69.8,61.0,69.3,63.8,58.2,93,82,64,29.98,29.92,1,0,6,0.00
2013-9-26,83.2,70.9,62.0,70.3,64.9,59.7,95,82,63,30.00,29.91,1,0,9,0.00
2013-9-27,74.6,63.3,59.0,63.8,58.4,54.8,93,84,65,29.97,29.88,2,0,4,0.00
2013-9-28,80.0,71.2,63.1,69.8,62.1,51.0,84,73,60,29.86,29.68,2,0,7,0.00
2013-9-29,81.5,69.8,63.0,62.2,58.8,56.0,85,69,42,29.77,29.62,6,1,17,0.00
2013-9-30,80.8,69.0,59.4,60.4,57.3,53.9,82,68,46,29.80,29.66,4,1,12,0.00
2013-10-1,84.9,71.6,61.9,70.1,63.6,57.8,89,77,52,29.82,29.72,3,0,10,0.00
2013-10-2,82.3,72.2,64.1,70.2,65.8,61.1,90,81,51,29.96,29.82,3,0,7,0.00
2013-10-3,79.3,73.0,70.4,70.6,68.8,67.0,95,87,71,30.09,29.94,2,0,7,0.02
2013-10-4,70.8,68.6,63.7,69.4,67.0,62.2,97,95,84,30.09,29.95,5,1,9,0.47
2013-10-5,74.2,64.8,58.3,65.2,61.7,57.0,97,90,70,30.22,30.03,2,0,5,0.57
2013-10-6,69.7,63.0,58.7,62.9,60.1,57.3,96,91,73,30.19,30.15,2,0,5,0.18
2013-10-7,72.1,63.1,56.2,61.7,58.3,54.2,96,85,64,30.20,30.14,1,0,4,0.00
2013-10-8,70.8,63.3,55.7,61.0,57.9,53.4,93,83,65,30.23,30.17,2,0,6,0.02
2013-10-9,70.3,63.3,56.8,61.4,58.6,54.5,94,85,66,30.23,30.10,3,0,9,0.03
2013-10-10,65.3,61.3,55.7,60.7,58.1,52.0,95,89,77,30.10,29.89,4,0,7,0.07
2013-10-11,55.6,51.0,48.3,53.6,48.9,45.9,95,92,85,30.07,29.94,2,0,6,0.21
2013-10-12,64.9,55.0,45.7,54.9,49.1,42.7,94,81,56,30.11,30.04,3,0,10,0.01
2013-10-13,70.1,58.1,48.7,59.8,51.4,42.1,93,79,62,30.16,30.08,3,0,7,0.00
2013-10-14,71.0,61.0,53.1,61.7,56.7,51.2,94,86,70,30.15,30.07,2,0,6,0.00
2013-10-15,74.9,64.7,57.7,61.6,57.1,54.2,90,78,54,30.12,29.92,2,0,6,0.00
2013-10-16,76.8,65.3,56.0,64.0,58.9,54.0,94,81,57,30.11,30.01,2,0,6,0.00
2013-10-17,74.2,65.4,58.6,66.1,60.9,56.0,92,85,75,30.14,30.03,3,0,7,0.00
2013-10-18,76.7,67.1,59.3,67.4,62.7,57.5,95,86,69,30.06,29.91,2,0,9,0.00
2013-10-19,76.1,68.0,60.5,67.1,63.1,56.7,94,85,73,30.08,29.98,2,0,7,0.00
2013-10-20,77.0,67.7,60.4,66.8,62.9,58.4,93,85,67,30.10,30.03,2,0,10,0.00
2013-10-21,76.0,65.7,57.7,66.5,60.9,54.8,95,85,67,30.10,30.00,2,0,9,0.00
2013-10-22,76.7,66.3,58.6,66.9,61.5,56.1,93,85,63,30.02,29.82,2,0,6,0.00
2013-10-23,78.4,69.2,60.8,65.4,59.5,51.7,96,74,43,30.03,29.87,3,0,11,0.02
2013-10-24,75.3,65.2,56.9,62.8,56.7,52.1,90,75,54,30.07,29.98,3,0,6,0.00
2013-10-25,76.2,66.8,58.2,67.3,62.5,55.9,95,86,69,30.09,30.00,1,0,6,0.00
2013-10-26,74.6,67.9,62.6,67.9,63.3,59.4,93,85,75,30.12,30.06,3,1,9,0.00
2013-10-27,79.6,68.1,59.2,61.6,57.3,51.2,95,72,38,30.17,30.07,2,0,7,0.00
2013-10-28,81.4,68.5,59.6,62.7,53.3,48.1,74,59,39,30.09,29.91,2,0,7,0.00
2013-10-29,62.5,58.2,53.9,55.2,53.0,50.7,93,83,69,30.11,29.96,1,0,4,0.04
2013-10-30,62.1,54.3,46.8,50.5,47.5,43.8,90,78,61,30.17,30.08,2,0,5,0.00
2013-10-31,68.5,56.4,49.8,48.4,43.7,37.6,80,64,34,30.24,30.16,2,0,6,0.00
2013-11-1,68.8,56.4,45.5,47.5,42.9,38.9,79,62,38,30.23,30.06,3,0,9,0.00
2013-11-2,72.6,61.2,52.4,54.2,46.7,35.8,80,60,41,30.05,29.95,2,0,7,0.00
2013-11-3,69.3,60.6,54.3,58.1,53.8,50.2,87,78,66,30.07,29.95,4,0,6,0.00
2013-11-4,65.0,58.8,51.1,54.6,50.3,45.2,89,74,55,30.02,29.60,2,1,12,0.01
2013-11-5,67.4,55.1,46.4,52.0,46.7,41.7,85,74,55,29.90,29.69,3,0,7,0.00
2013-11-6,72.9,60.6,51.4,61.1,54.0,48.6,91,80,60,30.10,29.89,3,0,6,0.00
2013-11-7,70.7,60.5,52.3,61.2,55.8,50.3,95,85,68,30.11,30.00,2,0,5,0.00
2013-11-8,74.0,61.1,51.5,58.8,53.9,49.0,93,79,48,30.04,29.89,3,0,6,0.00
2013-11-9,62.8,57.4,50.3,54.1,49.6,39.6,93,77,52,30.17,30.04,3,0,7,0.01
2013-11-10,64.9,54.4,47.7,49.6,43.8,39.4,76,68,53,30.11,30.00,3,0,7,0.00
2013-11-11,64.9,53.0,45.9,51.6,46.1,42.5,90,78,58,30.15,30.05,3,0,7,0.00
2013-11-12,69.1,52.3,45.1,47.0,37.6,28.0,79,58,34,30.16,30.10,3,1,6,0.00
2013-11-13,67.9,57.8,54.1,54.7,49.4,47.5,88,74,60,30.17,30.10,2,0,4,0.00
2013-11-14,64.4,54.7,49.5,53.1,49.3,39.9,93,83,49,30.21,30.13,3,0,5,0.00
2013-11-15,57.7,45.9,39.1,39.0,32.1,27.6,79,60,35,30.16,29.99,4,1,10,0.00
2013-11-16,55.0,49.8,44.0,49.0,38.7,31.9,85,66,52,30.15,30.04,5,3,16,0.47
2013-11-17,56.3,53.9,50.4,54.9,51.6,48.8,97,92,85,30.06,29.81,6,2,18,1.30
2013-11-18,56.4,54.5,53.1,53.0,51.3,48.9,96,89,76,29.76,29.47,7,4,19,1.43
2013-11-19,61.8,55.6,46.6,49.5,46.6,43.8,91,73,52,29.79,29.45,10,2,30,0.09
2013-11-20,51.9,44.9,37.5,43.9,29.3,17.2,92,60,26,29.92,29.79,8,2,26,0.00
2013-11-21,52.3,44.7,38.1,40.1,33.6,26.2,86,66,52,29.85,29.55,3,1,11,0.00
2013-11-22,52.7,43.0,37.7,35.9,32.8,29.1,87,69,41,29.76,29.51,7,1,23,0.00
2013-11-23,48.6,39.5,32.1,39.2,32.6,26.6,86,77,61,29.82,29.70,2,0,7,0.00
2013-11-24,54.1,43.4,34.8,41.3,35.9,31.9,89,76,47,30.06,29.81,3,0,6,0.00
2013-11-25,44.0,41.4,39.5,37.4,35.9,34.8,83,81,77,30.20,30.15,2,1,5,0.00
2013-11-26,50.7,40.8,31.8,38.6,33.0,27.3,90,75,44,30.28,30.17,3,0,7,0.00
2013-11-27,43.1,41.8,39.6,31.0,29.1,28.6,67,61,57,30.43,30.37,3,2,9,0.00
2013-11-28,45.0,36.3,31.1,33.3,29.6,27.4,88,77,60,30.43,30.36,3,1,7,0.00
2013-11-29,46.8,37.6,32.4,37.0,32.1,28.4,85,80,68,30.39,29.95,2,0,4,0.00
2013-11-30,53.7,46.3,32.8,35.2,32.1,28.0,85,59,46,30.25,29.95,6,2,7,0.00
2013-12-1,51.4,39.1,33.6,38.2,32.6,28.9,84,78,48,30.17,30.01,6,0,6,0.00
2013-12-2,60.6,49.9,33.5,39.1,36.2,28.9,85,61,44,30.35,30.06,3,1,4,0.00
2013-12-3,56.3,42.4,35.5,38.9,32.0,26.4,81,67,50,30.36,30.26,2,0,3,0.00
2013-12-4,53.7,39.8,34.8,36.8,29.8,27.0,75,68,49,30.33,30.28,0,0,1,0.00
2013-12-5,50.0,38.9,34.4,44.4,34.1,27.2,91,83,64,30.33,30.28,2,0,3,0.00
2013-12-6,53.3,38.3,34.0,39.7,33.8,30.5,90,84,59,30.33,30.23,1,0,1,0.00
2013-12-7,52.1,41.1,34.4,44.4,36.4,31.2,91,84,73,30.40,30.23,3,0,3,0.00
2013-12-8,53.1,40.2,35.5,44.7,36.9,33.3,93,88,73,30.49,30.33,2,0,4,0.00
2013-12-9,40.8,36.3,33.2,37.6,33.7,30.9,94,90,87,30.54,30.45,2,0,3,0.00
2013-12-10,53.9,44.9,37.0,44.2,40.1,34.3,90,83,69,30.58,30.47,3,1,6,0.00
2013-12-11,44.9,40.8,37.8,41.3,37.7,35.1,92,89,83,30.57,30.42,2,1,3,0.00
2013-12-12,49.6,40.1,36.2,44.6,37.6,34.1,94,91,83,30.47,30.29,3,0,3,0.00
2013-12-13,53.6,41.9,38.2,43.3,38.6,36.1,94,88,68,30.50,30.39,1,0,1,0.00
2013-12-14,53.6,39.0,34.9,41.7,34.9,32.0,94,85,61,30.53,30.41,1,0,1,0.00
2013-12-15,54.2,43.9,36.5,46.9,39.0,33.0,91,83,75,30.57,30.48,4,1,7,0.00
2013-12-16,54.1,47.6,45.6,50.3,44.2,41.9,93,88,83,30.49,30.40,4,0,4,0.00
2013-12-17,56.3,49.9,45.6,50.5,46.2,42.1,93,87,78,30.48,30.34,4,0,0,0.00
2013-12-18,57.0,46.6,43.2,46.3,42.9,40.1,91,87,65,30.33,30.15,3,1,6,0.00
2013-12-19,52.6,50.9,48.3,49.5,46.9,44.6,93,86,79,30.13,29.87,2,0,10,0.05
2013-12-20,54.4,47.9,41.9,49.5,45.7,35.2,96,92,77,30.46,29.88,3,0,5,0.17
2013-12-21,52.7,43.8,39.5,41.1,36.2,31.6,82,75,55,30.55,30.45,3,1,7,0.00
2013-12-22,56.3,45.2,36.2,41.0,35.7,31.8,84,70,53,30.49,30.37,3,1,7,0.00
2013-12-23,52.6,44.2,35.6,43.6,36.3,29.7,89,74,58,30.40,30.13,3,1,9,0.00
2013-12-24,54.9,49.4,45.3,48.8,45.7,42.2,93,87,79,30.13,29.68,2,1,10,0.00
2013-12-25,56.2,52.7,45.7,50.6,47.7,41.1,89,83,73,29.67,29.28,3,1,12,0.02
2013-12-26,55.1,46.2,38.2,41.2,35.5,31.3,82,67,48,29.90,29.34,6,1,15,0.00
2013-12-27,55.7,44.8,36.0,46.2,37.6,30.4,85,76,63,29.96,29.80,2,0,7,0.00
2013-12-28,63.0,52.7,45.4,48.4,44.4,36.9,86,74,39,30.06,29.75,4,1,9,0.00
2013-12-29,54.9,45.2,39.1,44.5,39.5,34.1,90,80,64,30.39,30.06,3,1,7,0.00
2013-12-30,51.5,41.2,35.2,39.5,34.3,30.5,86,77,55,30.39,30.26,3,0,6,0.00
2013-12-31,51.5,41.8,32.7,39.0,34.6,28.8,87,76,60,30.26,30.03,2,1,11,0.00
2014-1-1,56.0,46.1,36.5,44.6,38.9,33.1,89,77,60,30.11,29.92,3,1,7,0.00
2014-1-2,60.7,53.0,46.0,50.9,45.8,43.4,92,77,67,29.96,29.84,3,1,7,0.00